Weather in Pustosh

Russia / Ivanovo Oblast     56°50′54″N   41°37′24″E
temp.,
°C
wind,
m/s
gust,
m/s
humid.,
%
clouds,
%
prec.,
mm/h
press.,
hPa
HPBL,
m
13 june, sun
sun1300:00+14se259828 0.0 1007113
03:00+13sse2498100 0.0 100780
06:00+15sse249534 0.0 1007165
09:00+21sse237136 0.0 1007729
12:00+23s346138 0.7 10071337
15:00+21ssw3485100 2.4 1007396
18:00+21s12775 0.3 1007296
21:00+16sw229147 0.4 100822
14 june, mon
mon1400:00+15wsw229544 0.0 100922
03:00+14sw22965 0.0 101131
06:00+17sw24875 0.0 1012154
09:00+22sw34630 0.0 1013718
12:00+26sw344716 0.0 10142092
15:00+24sw255864 0.0 1014240
18:00+24wsw24602 0.1 1014560
21:00+18sw22871 0.2 101412
15 june, tue
tue1500:00+17sw118932 0.0 101411
03:00+18s1183100 0.0 101419
06:00+19sw018754 0.1 101437
09:00+24s116335 0.1 1013578
12:00+27sse125321 0.9 10121399
15:00+27s224653 1.0 10111567
18:00+22sw127398 0.1 101039
21:00+20s117599 0.1 100911
16 june, wed
wed1600:00+18wnw118383 0.2 100912
03:00+16n119267 1.6 100819
06:00+18n238913 0.1 1008144
09:00+22nw346959 0.2 1008624
12:00+24nnw68542 0.8 10091465
15:00+22nnw785575 0.9 10111746
18:00+20nw58530 0.0 10121378
21:00+14nw36760 0.0 1015112
17 june, thu
thu1700:00+12nw38780 0.0 1017143
03:00+10nnw37745 0.0 1019119
06:00+13nnw39670 0.0 1020269
09:00+18nnw46500 0.0 1022700
12:00+21nnw46410 0.0 10221853
15:00+22nnw46430 0.0 10231948
18:00+21nw36540 0.0 10241459
21:00+14nw36750 0.0 1025115